Weather History for Nome, AK

Change the Weather History Date:

Tuesday, January 29, 2013

  Actual Average Record
Temperature  
Mean Temperature 6 °F -  
Max Temperature 10 °F 13 °F 38 °F (1945)
Min Temperature 2 °F -3 °F -46 °F (1919)
Degree Days  
Heating Degree Days 59 60  
Month to date heating degree days 1482 1733  
Since 1 July heating degree days 7608 7551  
Cooling Degree Days 0    
Month to date cooling degree days 0  
Year to date cooling degree days 0  
Moisture  
Dew Point -8 °F    
Average Humidity 0    
Maximum Humidity 0    
Minimum Humidity 0    
Precipitation  
Precipitation T in 0.03 in 0.48 in (1928)
Month to date precipitation 0.92 0.88  
Year to date precipitation 0.92 0.88  
Snow  
Snow T in 0.40 in 1.60 in (2008)
Month to date snowfall 11.9 11.9  
Since 1 July snowfall 29.2 43.7  
Snow Depth 21.00 in    
Sea Level Pressure  
Sea Level Pressure 29.73 in    
Wind  
Wind Speed 22 mph (NE)    
Max Wind Speed 38 mph    
Max Gust Speed 47 mph    
Visibility 9 miles    
Events Snow    
T = Trace of Precipitation, MM = Missing Value Source: NWS Daily Summary

Daily Weather History Graph

Daily Weather History Graph

Search for Another Location

Airport:

Trip Planner

Search our weather history database for the weather conditions in past years. The results will help you decide how hot, cold, wet, or windy it might be!

Date:

Astronomy

Jan. 29, 2013 Rise Set
Actual Time 10:52 AM AKST 5:38 PM AKST
Civil Twilight 9:53 AM AKST 6:37 PM AKST
Nautical Twilight 8:52 AM AKST 7:38 PM AKST
Astronomical Twilight 7:56 AM AKST 8:35 PM AKST
Moon 10:23 PM AKST 10:31 AM AKST
Length of Visible Light 8h 44m
Length of Day
6h 45m
Waning Gibbous, 93% of the Moon is Illuminated
Jan 29
Waning Gibbous
Feb 3
Last Quarter
Feb 9
New
Feb 17
First Quarter
Feb 25
Full

Hourly Weather History & Observations

Time (AKST) Temp. Windchill Dew Point Humidity Pressure Visibility Wind Dir Wind Speed Gust Speed Precip Events Conditions
12:53 AM 7.0 °F -17.7 °F -6.0 °F 55% 29.95 in 6.0 mi NE 34.5 mph 47.2 mph 0.00 in Snow Blowing Snow
1:53 AM 7.0 °F -17.7 °F -6.0 °F 55% 29.92 in 6.0 mi NE 34.5 mph 47.2 mph N/A Snow Blowing Snow
2:53 AM 5.0 °F -18.3 °F -9.9 °F 50% 29.92 in 8.0 mi NE 27.6 mph 35.7 mph N/A Snow Low Drifting Snow
3:53 AM 5.0 °F -18.3 °F -9.0 °F 52% 29.89 in 8.0 mi NE 27.6 mph 35.7 mph N/A Snow Low Drifting Snow
4:53 AM 6.1 °F -17.9 °F -9.0 °F 50% 29.86 in 8.0 mi NE 31.1 mph 40.3 mph N/A Snow Low Drifting Snow
5:53 AM 6.1 °F -16.5 °F -9.0 °F 50% 29.84 in 8.0 mi NE 26.5 mph 33.4 mph N/A Snow Blowing Snow
6:53 AM 6.1 °F -16.5 °F -8.0 °F 53% 29.83 in 8.0 mi NE 26.5 mph 36.8 mph N/A Snow Low Drifting Snow
7:53 AM 7.0 °F -15.3 °F -8.0 °F 51% 29.79 in 8.0 mi NE 26.5 mph 38.0 mph N/A Snow Low Drifting Snow
8:53 AM 5.0 °F -15.7 °F -9.0 °F 52% 29.78 in 8.0 mi NE 20.7 mph 29.9 mph N/A   Scattered Clouds
9:53 AM 3.0 °F -17.3 °F -9.0 °F 57% 29.77 in 10.0 mi NE 18.4 mph 25.3 mph N/A   Clear
10:53 AM 1.9 °F -20.2 °F -9.9 °F 58% 29.75 in 10.0 mi NE 21.9 mph 28.8 mph N/A   Mostly Cloudy
11:53 AM 3.0 °F -17.8 °F -9.9 °F 55% 29.74 in 10.0 mi NE 19.6 mph - N/A   Clear
12:53 PM 5.0 °F -10.8 °F -8.0 °F 55% 29.73 in 10.0 mi NE 11.5 mph - N/A   Mostly Cloudy
1:53 PM 6.1 °F -12.8 °F -9.0 °F 50% 29.70 in 10.0 mi ENE 17.3 mph 26.5 mph N/A   Mostly Cloudy
2:53 PM 5.0 °F -14.7 °F -9.4 °F 52% 29.68 in 10.0 mi NE 18.4 mph - N/A   Mostly Cloudy
3:53 PM 6.1 °F -10.9 °F -7.1 °F 55% 29.66 in 10.0 mi NE 13.8 mph 21.9 mph N/A   Mostly Cloudy
4:53 PM 7.0 °F -11.0 °F -9.9 °F 46% 29.64 in 10.0 mi ENE 16.1 mph 25.3 mph N/A   Overcast
5:53 PM 8.1 °F -10.2 °F -9.0 °F 46% 29.63 in 10.0 mi NE 17.3 mph 23.0 mph N/A   Mostly Cloudy
6:53 PM 8.1 °F -10.7 °F -7.1 °F 50% 29.60 in 10.0 mi NE 18.4 mph 21.9 mph N/A   Overcast
7:53 PM 10.0 °F -10.0 °F -9.0 °F 42% 29.58 in 9.0 mi NE 23.0 mph - N/A   Overcast
8:53 PM 9.0 °F -10.0 °F -7.1 °F 48% 29.58 in 10.0 mi NNE 19.6 mph - N/A   Overcast
9:53 PM 8.1 °F -11.2 °F -4.9 °F 56% 29.57 in 9.0 mi NE 19.6 mph 25.3 mph N/A   Overcast
10:53 PM 6.1 °F -13.8 °F -4.0 °F 63% 29.57 in 9.0 mi NE 19.6 mph - 0.00 in Snow Light Snow
11:53 PM 6.1 °F -14.3 °F -2.9 °F 67% 29.57 in 7.0 mi NNE 20.7 mph 28.8 mph 0.00 in Snow Light Snow